Back to catalog

FENGYUN 1C DEB

AliveSSO
NORAD 31333·DEBRIS·🇨🇳 China

Launched May 10, 1999 from Taiyuan Satellite Launch Center

Loading…

Next Passes (next 24 hours)

TLE

FreshSource: Space-Track

Epoch: Sep 13, 2026, 18:44 UTC

1 31333U 99025BQM 26256.78056318  .00000918  00000-0  37345-3 0  9990
2 31333  98.4219 266.2761 0096005 298.1380  61.0126 14.27360914  4938

Track FENGYUN 1C DEB in real time with AllMySat

Download on the App Store